sat.trackr.live / text

‹ back to catalog

GLOBALSTAR M085

NORAD 37742 · 2011-033D

PAYLOAD ACTIVE UNKNOWN

§ Identity

Operator
Country
GLOB
Launch date
2011-07-13
Launch site
TYMSC
Launch vehicle
Mass (kg)
RCS (m²)
5.00

Purposes: comms

External: N2YO · Heavens-Above · Gunter

§ Orbital elements

Epoch: 2026-05-25T02:11:52.322784Z

Period
114.08 min
Inclination
52.0131°
Eccentricity
0.0000498
Mean motion
12.62263351 rev/d
Perigee alt
1,413.2 km
Apogee alt
1,414.0 km
Semi-major
7,791.8 km
B*
2.7399e-5
RAAN
263.4989°
Arg perigee
142.8239°
Mean anomaly
28.6123°
Rev number
68,687

§ Raw data

GLOBALSTAR M0851 37742U 11033D   26145.09157781 -.00000099  00000+0  27399-4 0  99992 37742  52.0131 263.4989 0000498 142.8239  28.6123 12.62263351686876

JSON: /api/v1/satellites/37742 · /tle

For live sub-satellite position, see the globe view (requires WebGL).

§ Visibility from observer

Set your observer location to see the next 7 days of passes ≥ 10°. The values pass through the URL so the page stays shareable.

No JS? Fill the form by hand. The geolocation button needs JavaScript.